Dewpoint
3 9 14 17 19 21 24 23 25 24 24 23 24 23 21 25 24 25 27 25 28 30 30 30 30 32 33 35 37 41 47 51 59 57 60 60 60 60 60 58 57 59 59
2 2 8 15 18 20 22 24 24 23 23 23 25 25 24 25 26 28 28 29 29 31 29 29 29 30 32 33 35 39 45 50 58 55 58 55 58 59 59 57 56 58 59
1 1 2 8 17 19 21 22 23 24 23 22 25 26 25 25 26 26 28 28 26 29 30 29 29 29 31 34 36 38 42 45 54 58 56 54 53 55 58 56 56 57 57
5 7 8 9 10 16 26 24 24 25 23 26 23 22 21 20 24 25 27 27 26 27 30 30 29 29 31 32 36 36 39 43 46 56 57 58 56 53 52 56 56 57 55
9 9 8 12 14 19 23 25 23 24 26 26 24 22 21 24 26 26 25 26 26 26 28 29 28 29 31 32 33 35 38 40 43 47 56 57 56 54 52 53 55 57 55
9 10 12 13 15 21 23 26 24 24 22 22 21 22 22 22 24 25 25 26 26 27 26 27 28 30 31 30 33 34 37 39 41 44 47 56 55 53 53 53 55 54 54
10 12 12 13 15 19 21 21 20 19 17 19 20 21 21 22 24 24 25 24 25 25 25 26 28 28 30 30 31 33 35 37 39 42 45 55 56 54 53 53 53 53 53
12 11 13 16 16 16 16 13 13 15 17 16 20 21 22 23 23 23 23 24 24 24 24 25 27 26 27 29 29 32 34 38 39 40 43 47 56 55 54 54 53 51 48
17 13 15 16 15 13 11 11 12 13 16 18 19 21 22 22 22 22 23 23 23 22 24 25 26 27 27 27 28 29 31 35 39 41 43 46 56 56 55 55 54 50 48
23 22 21 20 14 10 9 12 11 12 15 18 18 20 21 22 22 22 22 22 22 23 23 24 24 25 26 26 27 29 30 32 35 38 40 44 52 56 56 55 54 52 50
26 26 23 21 12 8 8 10 12 13 15 18 20 21 22 21 21 22 22 21 22 21 21 22 23 24 24 25 26 27 28 30 33 37 38 40 44 56 55 55 54 53 52
30 28 26 23 11 7 10 8 13 14 16 17 20 20 21 21 21 21 21 22 22 22 21 21 21 22 23 24 25 25 26 27 28 31 36 40 44 55 55 54 54 53 53
32 29 27 24 17 9 8 10 12 13 16 17 19 19 19 19 20 20 21 22 22 22 22 21 21 21 23 23 24 24 24 26 28 33 32 36 41 51 54 54 53 53 53
32 33 31 24 16 12 10 10 12 14 16 19 19 19 18 19 19 20 21 22 22 22 22 22 22 22 21 22 23 23 24 25 25 29 37 38 41 45 54 54 54 53 53
33 35 32 25 16 12 12 14 15 16 17 18 19 19 19 19 20 21 22 23 23 22 23 23 22 22 22 20 22 23 24 25 26 28 31 35 41 44 53 54 53 53 52
33 35 31 19 15 14 16 17 17 17 17 20 19 19 19 20 21 21 22 23 24 24 23 23 23 23 21 25 26 25 24 25 26 27 31 34 38 43 47 52 52 52 51
32 33 25 23 21 19 18 20 19 18 19 20 19 19 19 20 21 22 22 23 24 25 24 23 23 23 23 26 27 27 24 25 26 27 32 34 36 42 49 51 51 51 50
33 29 24 21 18 18 17 18 18 19 20 20 19 19 21 22 22 22 23 23 25 27 25 24 24 23 22 26 27 27 25 26 26 28 32 36 37 41 49 52 52 52 51
29 24 23 21 21 19 19 19 19 19 19 19 19 20 21 23 22 22 22 23 25 29 27 25 24 23 23 26 27 26 25 25 26 27 29 36 38 42 47 52 51 50 50
25 22 21 21 20 19 18 17 17 18 18 18 19 20 22 23 23 23 24 25 26 30 29 27 25 25 23 27 27 26 26 25 25 27 28 34 38 40 45 52 50 48 48
23 23 21 19 19 20 18 15 16 17 18 19 19 20 21 23 25 24 25 26 30 25 30 28 27 24 24 25 27 28 26 25 26 27 30 33 37 41 44 49 50 48 48
22 21 19 19 18 18 17 16 16 18 18 18 18 19 22 24 25 25 26 28 25 26 28 28 28 26 24 26 26 28 29 30 26 27 29 33 38 39 43 44 49 48 47
21 21 18 17 17 17 17 16 16 18 18 18 18 21 23 24 26 26 27 27 26 26 26 26 26 25 24 24 27 27 29 31 27 28 32 36 40 41 43 45 47 46 47
20 20 18 16 15 16 17 16 17 17 18 17 19 22 23 24 25 25 29 28 27 26 25 25 24 23 23 23 24 25 26 29 28 31 33 39 42 42 43 47 47 47 46
20 19 17 15 14 16 16 16 17 18 18 19 20 23 23 24 24 25 27 29 27 27 24 23 23 23 23 23 25 25 27 30 29 31 34 38 41 41 44 47 46 46 45
20 17 16 14 14 15 15 16 16 18 19 20 20 21 23 23 23 25 27 29 32 29 28 25 24 23 24 25 26 27 28 29 31 29 33 34 39 39 44 45 44 44 44
Lifted_Index
14 15 16 17 17 17 16 16 16 16 17 18 18 18 18 18 17 17 17 17 18 19 20 19 19 18 17 17 14 10 7 5 5 4 2 1 1 1 2 2 3 3 3
13 14 15 16 17 17 17 16 16 17 17 18 18 18 18 18 18 17 17 17 18 19 20 20 19 18 18 17 15 11 7 5 5 4 2 1 1 1 2 3 3 3 3
12 13 15 16 17 17 17 17 17 17 17 18 19 19 19 19 19 18 17 17 17 18 19 20 19 19 18 18 17 14 9 5 5 4 3 2 2 2 3 3 4 4 4
12 13 14 15 17 17 17 17 17 17 18 18 19 20 20 20 19 19 18 18 18 18 19 19 20 19 19 18 18 16 11 6 5 5 4 3 2 3 3 3 4 4 4
12 13 14 15 16 17 17 17 18 18 18 19 20 20 21 20 19 19 19 19 18 18 18 19 19 19 19 19 18 18 14 8 5 5 4 4 3 3 3 3 3 4 5
12 12 13 14 15 17 17 18 18 19 19 20 20 21 21 20 19 18 19 19 19 19 19 19 19 19 19 19 19 19 17 12 7 5 4 4 3 3 3 3 3 4 4
10 11 12 13 14 16 17 18 19 20 20 21 21 21 20 20 19 19 19 20 20 20 20 19 19 19 19 20 20 19 18 15 9 5 4 4 3 3 3 3 3 4 4
9 10 10 11 13 15 17 19 19 20 20 21 21 21 20 20 20 20 21 21 21 21 21 20 20 20 19 20 20 19 19 17 12 7 4 4 4 3 3 3 4 4 5
8 9 10 10 12 14 17 19 20 20 20 20 20 21 21 20 20 21 22 22 22 21 21 21 21 20 20 19 20 19 19 18 14 9 5 4 3 3 4 4 4 4 4
8 8 9 10 11 14 17 19 19 20 20 20 20 20 21 21 22 22 22 22 22 22 22 22 22 21 20 20 19 19 19 18 16 10 6 4 3 3 4 3 4 4 4
8 8 9 10 12 15 17 19 19 20 20 20 20 19 20 21 22 22 22 21 22 22 23 23 22 22 21 20 19 18 18 18 17 12 8 5 4 3 4 3 3 4 4
8 8 9 10 12 14 17 18 19 20 20 20 19 19 19 21 22 22 22 21 21 22 22 22 22 22 22 21 20 19 18 18 17 14 10 6 5 4 4 3 3 4 4
8 9 10 10 12 14 16 18 19 20 20 19 19 18 18 20 21 21 22 22 21 21 20 19 20 20 21 21 21 20 18 18 18 16 11 8 6 5 4 4 3 3 4
9 10 11 11 12 14 17 18 19 20 20 19 18 17 18 19 19 20 20 21 20 18 17 16 17 18 19 20 21 21 20 18 18 17 13 10 8 6 4 4 3 3 3
10 11 12 12 13 15 18 19 20 20 20 19 18 17 18 18 18 18 18 18 17 16 15 15 15 16 17 19 21 21 20 19 18 17 15 11 8 6 4 3 3 3 3
11 11 12 12 13 16 18 19 20 20 19 19 18 18 18 18 17 17 17 16 16 15 15 15 14 15 16 18 20 21 21 19 18 18 15 12 9 7 5 4 3 3 3
11 11 12 12 14 17 19 19 20 20 19 18 18 18 18 18 17 17 16 15 15 15 15 14 14 14 15 17 19 20 20 19 19 18 16 13 10 9 7 5 4 4 3
11 11 12 13 16 18 19 20 20 19 19 18 18 18 19 18 18 16 15 15 15 15 14 14 13 13 14 16 17 19 19 19 19 19 18 14 11 10 8 5 4 4 3
11 12 13 14 16 18 19 20 19 19 18 18 18 18 19 18 17 15 14 14 14 14 14 13 12 12 13 15 16 17 18 19 19 19 18 15 13 11 9 6 4 4 3
12 12 13 15 17 19 20 19 19 18 18 19 18 19 19 18 17 15 14 13 14 14 13 13 12 12 13 14 15 17 18 19 19 18 18 16 13 12 9 6 4 4 3
12 13 14 15 17 19 20 19 18 18 19 19 19 19 19 18 16 15 13 13 14 14 13 12 12 12 12 14 15 16 17 18 18 18 17 16 14 12 9 7 5 4 4
13 14 14 15 18 20 19 19 18 19 19 19 18 18 19 18 16 14 13 13 13 13 12 12 11 12 13 14 16 17 18 18 18 17 17 16 14 12 10 8 6 5 4
13 14 14 16 18 19 19 19 19 19 19 18 18 18 18 17 15 13 12 12 13 13 12 12 11 12 13 14 16 17 18 18 17 17 16 15 14 12 10 9 7 6 5
13 14 15 17 18 19 19 19 19 19 19 18 18 18 18 16 15 13 12 12 12 12 12 12 12 12 13 14 16 17 18 17 17 16 15 14 12 11 10 9 8 7 6
13 14 16 18 18 19 19 19 20 19 19 18 18 18 17 16 14 12 12 12 12 12 12 12 12 13 13 14 16 17 17 17 16 16 15 13 12 10 10 9 8 7 6
14 15 17 18 18 19 19 19 20 19 19 18 18 17 16 15 13 12 11 11 11 12 13 13 13 13 13 15 16 17 17 16 16 15 14 13 11 9 9 9 8 7 6